Location: Newark
(52.0178°N, 4.7453°W)
Time: 04:30:26
(UTC+00:00)

Envisat - Pass Details

Date: 27 March 2019
Orbit: 764 x 766 km, 98.2° (Epoch: 19 April)

Event Time Altitude Azimuth Distance (km) Brightness Sun altitude
Rises 20:35:16 0° 225° (SW) 3,226 6.5 -17.1°
Reaches altitude 10° 20:39:27 10° 259° (W) 2,307 6.2 -17.7°
Maximum altitude 20:41:00 11° 277° (W) 2,219 6.4 -17.9°
Drops below altitude 10° 20:42:34 10° 295° (WNW) 2,312 6.8 -18.1°
Sets 20:46:48 0° 329° (NNW) 3,246 7.3 -18.7°
